Location: Unspecified
(51.0950°N, 12.9690°E)
Time: 15:46:35
(UTC+00:00)

BEESAT - Pass Details

Date: 27 April 2024
Orbit: 692 x 702 km, 98.5° (Epoch: 20 May)

Event Time Altitude Azimuth Distance (km) Brightness Sun altitude
Rises 23:27:22 0° 0° (N) 3,085 ? -24.5°
Reaches altitude 10° 23:31:21 10° 327° (NNW) 2,160 ? -24.4°
Maximum altitude 23:32:40 11° 310° (NW) 2,083 ? -24.4°
Drops below altitude 10° 23:33:58 10° 294° (WNW) 2,156 ? -24.4°
Enters shadow 23:36:21 - 270° (W) 2,611 ? -24.3°
